Location: W�rzburg
(49.7529°N, 9.8822°E)
Time: 03:59:24
(UTC+01:00)

ISS - Pass Details

Date: 10 February 2018
Orbit: 402 x 407 km, 51.6° (Epoch: 23 February)

Event Time Altitude Azimuth Distance (km) Brightness Sun altitude
Rises 18:39:48 0° 288° (WNW) 2,321 1.3 -11.6°
Reaches altitude 10° 18:41:57 10° 280° (W) 1,460 0.3 -11.9°
Maximum altitude 18:45:02 39° 210° (SSW) 620 -2.6 -12.4°
Drops below altitude 10° 18:48:06 10° 140° (SE) 1,454 -1.3 -12.9°
Enters shadow 18:48:13 - 139° (SE) 1,500 -1.3 -12.9°
